Wind_Speed
23 22 21 20 20 19 18 18 18 18 20 22 27 32 32 30 27 28 21 14 12 12 11 12 9 29 25 16 27 20 30 16 16 18 16 13 15 18 22 18 8 11 6 7
23 22 22 21 20 19 19 20 21 22 23 24 27 28 29 30 30 29 23 20 14 17 11 5 1 18 28 25 17 23 25 17 12 14 15 17 17 18 21 22 22 19 10 6
23 22 22 23 22 20 19 20 19 23 23 23 25 26 29 29 27 29 36 26 23 25 20 13 7 8 15 21 24 24 23 21 23 23 21 18 22 21 23 21 23 26 27 19
22 22 22 23 23 20 21 22 21 21 15 25 24 24 21 18 24 25 25 32 29 27 23 22 19 15 7 16 20 19 20 23 24 24 18 15 18 16 19 26 30 26 29 25
23 24 21 22 21 20 21 23 25 26 25 20 23 25 23 24 14 21 25 22 29 30 27 21 18 12 14 15 17 18 17 17 22 20 22 21 21 20 17 15 15 18 21 25
21 21 20 18 19 19 21 24 27 27 25 24 21 16 15 18 23 26 17 19 20 35 34 27 22 14 16 19 17 14 16 22 19 22 22 22 22 26 23 21 20 18 19 15
23 20 19 18 18 18 20 24 27 27 25 22 23 25 22 21 22 34 24 21 20 24 33 39 30 24 20 21 20 20 16 17 20 12 18 4 22 27 29 28 24 22 20 21
22 20 20 20 19 18 20 24 25 25 25 24 22 25 29 26 26 28 35 27 23 25 23 22 32 32 28 29 26 21 23 18 14 11 20 10 18 21 17 22 26 20 19 19
21 19 18 17 18 19 18 21 22 24 25 22 23 24 28 32 33 27 24 28 28 24 26 15 22 16 18 14 17 22 23 23 24 19 7 8 20 20 13 18 24 20 24 20
21 19 18 17 17 17 18 20 21 23 26 20 19 22 26 30 25 29 27 25 19 27 28 24 24 31 23 17 23 20 25 29 32 25 15 11 17 12 10 22 24 10 18 18
22 20 16 13 11 12 14 17 21 22 26 23 24 25 22 26 24 20 21 22 22 19 17 23 15 15 29 28 30 30 28 25 28 27 25 14 17 21 22 18 20 15 14 10
24 20 16 13 11 10 12 15 20 23 25 21 27 28 26 25 20 26 24 18 11 16 14 17 16 6 16 27 28 36 37 32 30 24 27 7 17 17 18 22 21 17 11 11
25 20 17 13 11 10 10 13 18 22 24 24 27 25 23 27 23 20 27 30 23 26 11 20 16 15 21 17 24 28 35 30 37 25 30 26 30 24 18 21 18 14 9 10
25 21 17 13 11 11 13 14 18 20 22 26 22 20 31 27 26 26 29 30 31 30 27 18 13 14 11 26 20 27 24 24 26 35 31 21 16 24 28 24 21 19 15 13
26 21 18 14 11 12 14 17 20 21 19 21 16 20 24 25 26 28 26 27 30 29 26 27 25 12 12 26 31 29 31 25 22 18 17 24 24 16 21 16 15 14 14 15
26 22 19 15 12 15 17 19 19 21 23 24 29 19 17 27 24 25 26 27 26 24 21 27 31 32 20 10 28 35 29 27 19 22 24 20 18 17 17 18 17 14 15 15
26 21 18 15 15 16 17 16 14 15 19 20 19 19 14 18 15 20 23 22 23 20 19 27 33 32 22 30 33 34 29 25 27 20 31 22 18 15 19 17 19 17 13 15
25 22 18 16 17 19 19 21 18 13 13 15 12 13 9 14 18 20 17 21 20 22 24 25 27 25 29 43 43 30 25 27 26 25 22 31 27 19 20 21 21 20 16 16
26 23 20 19 20 20 15 18 20 21 17 9 20 18 11 9 12 10 14 20 21 23 27 29 25 28 32 45 43 39 27 23 21 32 35 28 30 19 17 22 23 21 19 16
26 22 20 20 16 13 15 18 22 26 28 34 31 12 22 12 8 15 16 16 22 15 23 20 31 42 43 42 42 38 31 25 24 22 23 22 18 22 21 23 22 21 20 17
27 24 21 16 11 14 14 14 13 16 21 32 40 35 19 16 15 16 10 6 11 13 20 16 18 44 43 39 36 30 26 23 24 28 23 30 30 27 25 29 26 22 22 23
23 19 14 15 12 10 10 10 12 16 17 26 25 29 32 17 13 9 9 12 9 9 15 15 20 27 32 29 25 21 16 18 20 26 29 24 29 29 31 28 29 25 24 22
20 19 18 11 12 11 14 15 18 26 32 25 17 20 19 26 23 11 7 8 9 5 10 9 7 3 6 7 15 21 27 24 27 28 27 29 30 34 30 29 30 27 24 23
25 22 19 13 10 13 26 24 14 13 22 24 12 15 14 18 15 12 8 12 14 5 8 9 7 8 12 11 10 11 15 19 19 20 26 31 33 37 36 33 30 28 25 21
22 16 12 18 14 16 4 11 14 13 11 6 13 19 17 12 10 8 10 7 7 5 4 8 8 11 13 14 15 14 18 20 21 22 24 30 40 41 42 39 35 29 25 25
18 16 15 14 16 16 12 15 14 12 10 16 15 16 9 12 10 8 12 5 3 7 11 17 17 16 14 16 17 17 14 22 25 23 23 24 37 40 39 37 35 33 30 27
19 25 22 16 13 17 12 16 13 9 14 15 14 10 9 6 6 9 8 1 8 12 14 20 21 22 20 21 23 23 27 25 24 28 26 28 31 39 37 38 36 36 32 30
Wind_Direction
251 253 255 256 256 256 252 247 239 234 225 221 224 231 235 239 235 224 243 242 245 255 243 251 260 232 228 224 226 225 225 236 221 212 221 230 234 241 230 221 212 223 250 254
248 251 255 254 252 253 247 237 232 231 225 224 230 233 236 238 238 232 238 232 233 239 235 278 332 220 227 232 233 228 214 213 184 200 218 223 229 233 235 240 244 242 230 246
246 247 251 252 250 245 237 228 224 225 222 226 232 240 243 241 239 237 236 236 236 240 239 228 231 140 203 213 215 221 211 212 216 212 229 220 221 234 236 234 236 245 247 249
244 244 247 249 246 236 228 222 219 222 221 224 234 240 243 249 250 239 239 242 233 240 252 240 236 243 214 216 208 213 218 223 232 241 235 233 231 234 245 243 245 245 261 250
243 245 239 241 236 229 223 220 222 222 223 222 231 237 249 244 235 235 226 241 237 238 247 238 237 248 225 206 204 214 222 231 227 224 224 229 248 253 248 244 248 255 261 262
225 229 232 233 234 230 225 225 229 228 225 225 227 226 236 241 232 221 232 243 240 234 237 240 239 233 212 210 200 206 222 224 214 225 229 235 241 234 239 250 252 257 253 269
222 230 236 235 232 230 226 227 231 234 233 233 229 227 229 237 229 228 210 225 227 231 235 235 235 238 221 208 193 204 210 221 225 218 226 242 249 238 246 253 265 262 259 266
224 233 233 232 231 229 223 228 229 236 241 240 235 233 232 233 229 231 231 236 240 228 227 239 236 246 246 220 208 208 210 215 209 208 217 227 231 230 229 233 249 248 251 255
219 222 224 227 226 228 223 228 231 235 241 244 245 241 235 238 240 243 239 235 241 249 231 221 228 227 223 226 232 201 203 212 224 213 218 209 248 234 239 233 256 241 254 266
211 210 213 217 222 223 222 229 234 238 242 231 237 237 237 238 242 241 235 229 227 242 240 225 226 221 223 215 213 203 206 211 216 214 221 235 220 201 211 223 258 258 257 269
202 203 203 205 219 227 226 231 239 241 243 234 231 235 236 238 241 243 233 238 237 233 241 242 230 198 209 221 223 220 210 208 214 215 227 234 242 222 226 249 261 261 281 243
199 198 198 203 214 225 227 228 241 243 245 241 234 237 240 245 248 248 245 237 218 219 230 241 249 209 203 222 228 230 231 222 220 219 229 234 242 249 250 249 254 265 265 245
199 196 201 208 220 231 231 225 239 249 253 253 243 239 239 244 243 242 246 243 249 250 250 235 238 232 225 218 220 225 225 229 232 235 237 243 249 248 239 248 261 254 264 243
200 199 203 212 227 238 238 236 245 250 255 259 245 241 230 235 238 237 241 242 248 259 257 255 256 225 225 227 237 230 209 208 221 234 239 249 253 240 245 252 254 256 254 233
201 201 205 217 234 246 245 235 241 249 248 262 266 244 236 232 236 238 241 247 251 256 258 260 268 260 234 223 230 232 223 226 222 230 217 231 233 239 240 236 250 257 239 236
202 205 209 220 237 249 252 248 242 245 254 262 271 262 237 231 229 232 232 235 243 252 250 250 255 265 270 268 227 225 225 225 221 211 218 230 226 240 250 241 257 275 249 236
205 210 216 225 243 254 249 250 255 247 243 251 274 285 245 222 221 231 238 236 240 249 244 246 246 250 253 256 250 221 223 228 228 223 216 215 216 227 251 241 254 260 247 238
205 210 217 230 244 245 240 232 229 232 240 244 252 254 229 209 224 236 232 234 240 246 247 251 253 256 251 251 251 240 235 234 234 218 216 218 213 219 220 240 243 253 256 245
205 210 219 235 247 248 246 231 228 231 222 236 239 239 253 227 242 226 226 231 239 244 250 251 253 250 245 249 253 249 250 252 253 246 212 207 211 223 228 238 237 247 249 248
205 211 225 242 256 250 221 217 227 235 236 239 240 225 227 210 184 207 228 238 229 245 255 258 255 257 252 251 255 255 255 270 264 250 260 228 244 225 228 240 246 261 257 249
203 211 224 236 230 203 203 215 227 231 239 245 242 234 232 226 257 270 273 222 214 239 247 236 257 260 256 256 258 258 255 260 251 241 236 216 231 230 221 237 248 257 259 260
207 218 225 212 195 199 213 224 225 234 248 248 252 248 231 223 224 249 284 280 225 223 212 220 251 270 271 264 258 242 229 249 248 237 240 232 221 223 216 228 242 251 260 258
203 200 196 187 203 213 224 220 222 230 244 256 274 222 222 229 230 230 248 251 243 208 195 224 199 352 345 270 244 243 247 252 243 224 225 225 225 226 229 225 237 239 252 257
198 190 188 198 203 215 233 248 283 286 262 254 230 182 202 205 204 211 233 251 291 265 222 240 268 256 255 252 256 245 255 268 266 243 243 237 222 232 231 232 230 235 243 261
191 187 199 221 215 218 264 257 261 243 242 150 169 199 219 215 221 222 215 233 228 241 296 312 246 239 253 258 256 254 253 252 261 261 256 245 225 230 236 235 233 231 238 245
188 201 210 199 221 224 234 230 252 224 202 213 215 217 205 220 222 227 202 223 229 242 248 255 255 258 256 257 254 246 267 255 258 260 255 246 226 221 227 224 227 232 241 246
210 219 209 197 214 199 200 214 242 218 205 214 217 230 216 253 219 216 216 221 300 282 272 265 261 259 251 255 269 261 278 279 279 247 258 237 235 224 229 228 227 235 238 239
Height
3071 3073 3076 3079 3081 3083 3086 3088 3092 3093 3095 3100 3098 3099 3103 3109 3112 3117 3116 3117 3118 3119 3118 3118 3118 3120 3123 3126 3129 3130 3135 3137 3139 3141 3143 3144 3146 3147 3148 3148 3148 3148 3147 3148
3064 3067 3070 3073 3075 3078 3080 3082 3086 3086 3089 3092 3093 3095 3097 3100 3104 3111 3113 3113 3115 3115 3116 3117 3115 3116 3119 3121 3122 3124 3128 3130 3134 3138 3140 3140 3140 3142 3143 3144 3144 3143 3145 3146
3059 3061 3064 3067 3070 3072 3076 3079 3081 3081 3084 3087 3088 3090 3092 3095 3098 3102 3105 3108 3111 3111 3111 3114 3112 3112 3115 3116 3118 3121 3123 3124 3127 3129 3132 3135 3137 3137 3138 3140 3139 3138 3139 3141
3054 3056 3059 3061 3064 3067 3071 3072 3074 3075 3077 3081 3083 3086 3087 3091 3093 3097 3100 3102 3105 3107 3108 3109 3109 3110 3111 3113 3115 3116 3119 3120 3123 3126 3129 3131 3132 3133 3134 3133 3135 3135 3136 3138
3048 3051 3053 3056 3059 3062 3065 3067 3069 3071 3073 3077 3080 3082 3084 3087 3091 3092 3094 3096 3100 3103 3103 3105 3105 3106 3109 3109 3112 3112 3114 3116 3118 3121 3125 3127 3127 3129 3130 3130 3131 3131 3132 3132
3043 3046 3049 3051 3053 3057 3058 3061 3063 3066 3068 3072 3076 3079 3079 3081 3084 3086 3089 3090 3092 3095 3098 3098 3101 3103 3104 3105 3106 3108 3110 3112 3114 3116 3121 3122 3123 3122 3125 3126 3126 3127 3127 3129
3038 3041 3044 3047 3049 3052 3055 3057 3060 3062 3064 3068 3071 3073 3075 3077 3079 3079 3081 3083 3084 3088 3090 3092 3094 3096 3099 3100 3100 3103 3105 3108 3112 3114 3116 3117 3115 3119 3120 3121 3121 3122 3122 3123
3033 3037 3039 3042 3044 3047 3051 3052 3055 3056 3058 3061 3066 3068 3070 3071 3074 3075 3077 3079 3080 3081 3086 3086 3087 3090 3093 3092 3096 3098 3101 3105 3107 3109 3108 3109 3108 3113 3115 3115 3116 3117 3117 3118
3029 3032 3035 3038 3041 3044 3047 3047 3050 3053 3055 3058 3059 3063 3065 3066 3068 3070 3072 3074 3076 3078 3080 3082 3081 3082 3084 3087 3089 3093 3096 3100 3103 3104 3104 3103 3104 3109 3111 3112 3109 3113 3112 3112
3024 3028 3032 3035 3037 3040 3043 3044 3046 3048 3050 3053 3055 3057 3060 3061 3063 3065 3068 3069 3072 3071 3073 3073 3074 3075 3079 3081 3084 3087 3089 3092 3094 3097 3099 3097 3101 3103 3106 3109 3107 3106 3107 3109
3021 3025 3029 3031 3033 3036 3039 3041 3042 3044 3044 3049 3050 3052 3054 3055 3059 3060 3062 3066 3065 3068 3070 3071 3065 3064 3069 3073 3077 3081 3084 3087 3089 3093 3093 3095 3097 3100 3101 3103 3104 3104 3104 3105
3017 3022 3026 3029 3031 3033 3036 3038 3038 3039 3040 3045 3045 3046 3049 3051 3055 3057 3058 3061 3060 3063 3065 3064 3060 3058 3063 3065 3070 3076 3079 3079 3084 3088 3086 3090 3092 3095 3097 3098 3100 3102 3101 3102
3014 3018 3022 3025 3028 3030 3033 3034 3033 3034 3035 3038 3039 3043 3048 3046 3048 3051 3052 3053 3056 3055 3058 3056 3057 3057 3062 3061 3065 3070 3073 3076 3080 3083 3083 3085 3089 3091 3092 3094 3096 3098 3099 3100
3010 3014 3018 3021 3023 3025 3028 3030 3030 3031 3032 3031 3035 3034 3038 3039 3041 3044 3045 3046 3048 3048 3051 3051 3053 3055 3054 3056 3060 3062 3067 3071 3073 3075 3079 3082 3083 3084 3087 3090 3092 3093 3095 3096
3006 3010 3014 3017 3019 3021 3023 3025 3025 3026 3031 3026 3027 3028 3032 3033 3035 3037 3040 3042 3043 3043 3045 3046 3046 3046 3052 3052 3055 3055 3060 3063 3067 3070 3074 3074 3075 3079 3081 3084 3086 3089 3091 3092
3002 3006 3010 3013 3015 3017 3019 3020 3023 3023 3023 3023 3020 3022 3025 3027 3028 3030 3032 3035 3037 3038 3039 3040 3040 3044 3049 3045 3045 3050 3055 3059 3059 3064 3067 3069 3071 3072 3077 3081 3082 3084 3086 3087
2998 3003 3007 3009 3011 3013 3016 3018 3020 3019 3020 3020 3019 3016 3018 3022 3022 3025 3027 3030 3030 3033 3034 3033 3035 3039 3041 3040 3037 3043 3048 3052 3055 3058 3061 3065 3068 3070 3074 3077 3078 3080 3081 3082
2994 2999 3002 3005 3007 3008 3010 3011 3014 3016 3017 3018 3017 3014 3017 3017 3019 3020 3022 3024 3026 3026 3027 3026 3029 3033 3035 3029 3030 3038 3044 3047 3048 3051 3053 3057 3060 3061 3063 3070 3073 3075 3077 3078
2990 2994 2997 3000 3001 3002 3007 3009 3011 3012 3016 3013 3010 3012 3014 3016 3016 3017 3019 3021 3021 3021 3018 3019 3025 3023 3017 3015 3025 3032 3037 3040 3042 3043 3042 3048 3051 3055 3059 3064 3067 3069 3072 3074
2985 2990 2994 2995 2999 3002 3004 3005 3006 3007 3006 3005 3003 3007 3008 3011 3011 3013 3016 3015 3016 3014 3013 3016 3011 3003 3006 3012 3017 3024 3029 3033 3035 3037 3040 3041 3045 3048 3052 3058 3062 3064 3067 3070
2980 2985 2989 2993 2995 2997 2999 3001 3001 3001 2997 2995 2996 3003 3004 3009 3009 3011 3011 3009 3010 3008 3007 3008 3001 2991 2998 3007 3011 3017 3021 3025 3028 3030 3034 3037 3041 3045 3047 3051 3056 3059 3062 3064
2978 2983 2987 2990 2993 2995 2997 2995 2994 2991 2990 2989 2991 2997 3002 3006 3008 3008 3009 3006 3003 2999 3001 3001 2994 2994 2996 2999 3003 3010 3014 3016 3017 3019 3024 3028 3031 3037 3040 3045 3050 3053 3057 3058
2976 2980 2983 2988 2990 2990 2988 2985 2982 2982 2981 2984 2986 2991 2995 3001 3005 3006 3007 3003 2996 2993 2993 2990 2992 2993 2992 2992 2997 3003 3008 3010 3010 3011 3014 3017 3022 3028 3032 3036 3041 3046 3050 3052
2971 2975 2979 2982 2980 2978 2976 2976 2977 2980 2979 2981 2984 2989 2993 2995 2999 3002 3001 2997 2993 2988 2987 2986 2990 2991 2992 2994 2996 2999 3002 3004 3005 3007 3010 3012 3014 3018 3024 3029 3035 3039 3043 3046
2967 2972 2973 2970 2973 2974 2975 2976 2976 2978 2979 2979 2983 2989 2992 2993 2994 2994 2994 2991 2988 2986 2983 2983 2983 2984 2986 2988 2991 2993 2995 2997 2997 2999 3000 3001 3004 3009 3014 3021 3027 3031 3035 3039
2964 2965 2965 2967 2968 2971 2973 2974 2974 2976 2978 2981 2984 2985 2986 2987 2988 2985 2985 2984 2982 2982 2980 2980 2980 2982 2983 2984 2985 2986 2987 2988 2989 2990 2990 2993 2995 3000 3006 3012 3018 3024 3028 3031
2957 2957 2962 2964 2965 2968 2970 2971 2973 2972 2976 2978 2981 2981 2982 2981 2978 2980 2980 2979 2979 2978 2978 2977 2976 2976 2978 2979 2979 2978 2978 2978 2979 2979 2981 2984 2988 2993 2998 3004 3009 3015 3020 3024